Showing default

INTELSAT 2-F1, 2514

Orbit data source: Space-Track

INTELSAT 2-F1, 2514 is a payload satellite owned by INTELSAT (US) in HEO that was launched on Wed, 26 Oct 1966 UTC via a THOR DELTA E1 launch vehicle from the Air Force Eastern Test Range (AFETR). Payload-class satellites include a variety of spacecraft equipped with specific instruments for various scientific and technological missions. These include communications satellites like Starlink; space stations such as the ISS; scientific satellites like the Hubble; Earth observation satellites from companies like Planet Labs, Umbra, and HawkEye 360; GPS; miniature CubeSats for education and research; and military/defense satellites.

Loading next visibility...
Identifier
2514, 1966-096A
Orbit
HEO
Country
Flag of USUS / ITSO
Related business
Manufacturer
Hughes
Mission
Non-operational spacecraft
Bus & Motor
HS-303, SVM-1
Mass
162 kg wet, 64 kg dry
Launch date (UTC)
1966-10-26 (60 years ago)
Launch vehicle
THOR DELTA E1
Launch site
Air Force Eastern Test Range (AFETR)
Object type
Payload
Rocket body
Debris
Shape & HBR
Unknown
Radar Cross Section
Large (>1 m²)

Expand to show TLE details & history
Last TLE update: 1 day ago

TLE from 1 day ago
0 INTELSAT 2-F1
1 02514U 66096A   26202.04586272 -.00000346  00000-0  00000-0 0  9999
2 02514  18.1399  48.8804 6390232 193.1354 135.5318  2.00327670 95498
Epoch: 2026-07-21T01:06Z
TLE epoch observation values (Epoch: 2026-07-21T01:06:02.539Z)
Latitude
-0.00002°
Longitude
93.57309°
Altitude
35,237.605 km
Speed
2.04 km/s
True Right ascension
03h 15m 37s
True Declination
0° 00' 00"
Sunlit
Object was in daylight at epoch
Visualization orbit readout
Latitude
Unknown
Longitude
Unknown
Altitude
Unknown
Speed
Unknown
Apparent Right ascension
Unknown
Apparent Declination
Unknown
Sunlit
N/A
Visualization observer readout
Local Sidereal Time
17:48:52
Azimuth
Unknown
Elevation
Unknown
Doppler factor
Unknown
Orbital elements
Apogee altitude
37,194.19 km
Perigee altitude
3,218.188 km
Semi-major axis
26,584.326 km
Eccentricity
0.63902
Inclination
18.1399°
RAAN
48.8804°
Arg. of periapsis
193.1354°
True anomaly
166.87871°
Mean anomaly
135.5318°
Eccentric anomaly
152.4604°
Mean motion
0.50073 °/min
Orbital period
718.95 mins
BSTAR
0
Loading maneuver chart data...
Computing Atmospheric mass density...
Loading historical data...
Loading historical data...
Loading historical data...
Loading historical data...
Loading historical data...
Loading historical data...
Loading historical data...
Other satellites on launch #96 in the year 1966 (1966-10-26 UTC)

Documentation

Showing up to 5 results
|